Torna al catalogo

ONEWEB-0665

AttivoComunicazioniPO
NORAD 55825·PAYLOAD·🇬🇧 United Kingdom

Lanciato Mar 9, 2023 da Cape Canaveral Space Force Station

Loading…

Prossimi Passaggi (prossime 24 ore)

TLE

AggiornatoSource: CelesTrak SupGP

Epoca: Sep 14, 2026, 09:13 UTC

1 55825C 23029AF  26257.38417081  .00002005  00000+0  54151-2 0  2576
2 55825  87.8889 271.9300 0002079  86.2789 348.0924 13.14496685    13

Traccia ONEWEB-0665 in tempo reale con AllMySat

Download on the App Store